Track METEOR 2-8 now! 10-day predictions METEOR 2-8 is classified as:
1 13113U 82025A 21016.83375368 .00000047 00000-0 28416-4 0 9995 2 13113 82.5375 233.8670 0018758 41.0944 329.8284 13.85395848961838